Flag for Gaza Strip Weather past 2 weeks in Gaza, Gaza Strip

Now
90 °F

Scattered clouds.


Feels Like: 98 °F
Forecast: 76 / 86 °F
Wind: 8 mph from Northwest

Location: Ben Gurion International Airport

Current Time: Aug 30, 2014 at 2:03:42 PM

Latest Report: Aug 30, 2014 at 1:20 PM


Visibility: N/A

Pressure: 29.80 "Hg

Humidity: 59%

Dew point: 73 °F

Location of GazaLocation

Historic Weather in Gaza — Graph

°F

Gaza temperature yesterday

Maximum temperature yesterday: 90 °F (at 12:20 PM)
Minimum temperature yesterday: 77 °F (at 1:20 AM)
Average temperature yesterday: 82 °F

Past Weeks' High & Low Weather Summary

 TemperatureHumidityPressure
High93 °F (Aug 18, 11:20 AM)89% (Aug 23, 4:50 AM)29.95 "Hg (Aug 23, 4:50 AM)
Low73 °F (Aug 26, 5:20 AM)46% (Aug 20, 11:20 AM)29.62 "Hg (Aug 17, 1:20 PM)
Average83 °F68%29.78 "Hg
* Reported Aug 15 12:20 PM — Aug 30 12:50 PM, Gaza, Weather by CustomWeather, © 2014

Note: Actual official high and low records may vary slightly from our data, if they occured in-between our weather recording intervals... More about our weather records

Advertising

Gaza weather history for previous 24 hours

 ConditionsComfort  
Time TempWeatherWind HumidityBarometerVisibility
12:50 PM
Aug 30
90 °FScattered clouds.9 mph59%29.80 "HgN/A
12:20 PM90 °FScattered clouds.9 mph59%29.80 "HgN/A
11:50 AM88 °FScattered clouds.6 mph59%29.80 "HgN/A
11:20 AM88 °FScattered clouds.5 mph59%29.80 "HgN/A
10:50 AM88 °FPartly sunny.3 mph59%29.83 "HgN/A
10:20 AM88 °FScattered clouds.3 mph62%29.83 "HgN/A
9:50 AM86 °FScattered clouds.3 mph62%29.83 "HgN/A
9:20 AM84 °FScattered clouds.3 mph66%29.83 "HgN/A
8:50 AM84 °FScattered clouds.1 mph66%29.83 "HgN/A
8:20 AM81 °FPassing clouds.2 mph74%29.83 "HgN/A
7:50 AM79 °FSunny.5 mph74%29.80 "Hg10 mi
7:20 AM77 °FSunny.5 mph79%29.80 "Hg10 mi
6:50 AM77 °FClear.3 mph79%29.83 "Hg10 mi
6:20 AM77 °FPassing clouds.3 mph79%29.83 "HgN/A
5:50 AM77 °FPassing clouds.3 mph79%29.80 "HgN/A
5:20 AM77 °FPassing clouds.3 mph79%29.80 "HgN/A
4:50 AM77 °FClear.2 mph79%29.80 "Hg10 mi
4:20 AM77 °FClear.3 mph79%29.80 "Hg10 mi
3:50 AM77 °FPassing clouds.2 mph79%29.80 "HgN/A
3:20 AM77 °FPassing clouds.5 mph79%29.80 "HgN/A
2:50 AM77 °FPassing clouds.5 mph79%29.80 "HgN/A
2:20 AM79 °FPassing clouds.5 mph74%29.80 "HgN/A
1:50 AM79 °FPassing clouds.5 mph74%29.80 "HgN/A
1:20 AM79 °FPassing clouds.5 mph74%29.80 "HgN/A
12:50 AM79 °FPassing clouds.3 mph74%29.80 "HgN/A
12:20 AM79 °FPassing clouds.5 mph79%29.80 "HgN/A
10:20 PM
Aug 29
81 °FPassing clouds.2 mph74%29.80 "HgN/A
9:50 PM81 °FPassing clouds.3 mph74%29.80 "HgN/A
9:20 PM81 °FPassing clouds.2 mph74%29.80 "HgN/A
8:50 PM82 °FPassing clouds.3 mph70%29.80 "HgN/A
8:20 PM82 °FPassing clouds.7 mph70%29.80 "HgN/A
7:50 PM82 °FSunny.7 mph70%29.80 "Hg10 mi
7:20 PM82 °FSunny.8 mph70%29.80 "Hg10 mi
6:50 PM84 °FPassing clouds.8 mph66%29.77 "HgN/A
6:20 PM84 °FPassing clouds.10 mph66%29.77 "HgN/A
5:50 PM86 °FPassing clouds.12 mph62%29.77 "HgN/A
5:20 PM86 °FSunny.13 mph62%29.77 "Hg10 mi
4:50 PM88 °FPassing clouds.12 mph62%29.77 "HgN/A
4:20 PM88 °FSunny.13 mph59%29.77 "Hg10 mi
3:50 PM88 °FSunny.12 mph59%29.77 "Hg10 mi
3:20 PM88 °FPassing clouds.12 mph59%29.77 "HgN/A
2:50 PM88 °FPassing clouds.12 mph59%29.77 "HgN/A
2:20 PM88 °FPassing clouds.12 mph59%29.77 "HgN/A
Weather by CustomWeather, © 2014

See weather overviewHow to use our weather pages